Regional Weather Roundup
Issued by NWS

Home | Current Version | Previous Version | Text Only | Print | Product List | Glossary On
Versions: 1 2 3 4 5 6 7 8 9 10 11 12 13 14 15 16 17 18 19 20 21 22 23 24 25 26 27 28 29 30 31 32 33 34 35 36 37 38 39 40 41 42 43 44 45 46 47 48 49 50
000
ASUS43 KTOP 212008
RWRKS

WEATHER ROUNDUP FOR KANSAS
NATIONAL WEATHER SERVICE GOODLAND KS
200 PM CST TUE NOV 21 2017

NOTE:  "FAIR" INDICATES FEW OR NO CLOUDS BELOW 12,000 FEET WITH NO
SIGNIFICANT WEATHER AND/OR OBSTRUCTIONS TO VISIBILITY.

KSZ001>006-013>018-027>032-041>047-212100-
NORTHWEST KANSAS

CITY           SKY/WX    TMP DP  RH WIND       PRES   REMARKS
GOODLAND       SUNNY     47  25  42 N15G26    30.29S
HAYS           SUNNY     49  24  37 N26G33    30.28R
HILL CITY      SUNNY     48  23  37 N17G30    30.31R
RUSSELL        SUNNY     48  25  40 N23G31    30.26R
$$

KSZ061>065-074>080-084>089-212100-
SOUTHWEST KANSAS

CITY           SKY/WX    TMP DP  RH WIND       PRES   REMARKS
DODGE CITY     SUNNY     53  25  33 N26G37    30.24R
ELKHART        SUNNY     55  31  39 N18G28    30.26R
GARDEN CITY    SUNNY     53  26  35 N22G32    30.26R
GREAT BEND     SUNNY     49  25  39 N26G33    30.25R
LIBERAL        SUNNY     53  28  38 NE24G32   30.24R
PRATT          SUNNY     52  24  33 N22G29    30.21R
$$

KSZ066>073-081>083-090>101-212100-
SOUTHEAST KANSAS

CITY           SKY/WX    TMP DP  RH WIND       PRES   REMARKS
CHANUTE        SUNNY     56  31  38 N18G29    30.12R
COFFEYVILLE    SUNNY     60  34  37 N18       30.08R
HUTCHINSON     SUNNY     51  26  37 N25G35    30.20R
MEDICINE LODGE   N/A     55  29  36 N28G35    30.17R
NEWTON         SUNNY     49  25  39 N26G35    30.19R
PARSONS        SUNNY     59  34  39 N15G24    30.10R
WICHITA INTL   SUNNY     54  27  35 N26G35    30.17R
WICHITA JABRA  SUNNY     52  26  36 N28G37    30.17R
WICHITA MCCONL SUNNY     54  25  33 N25G37    30.16R
WINFIELD       SUNNY     58  31  35 N24G35    30.13R
$$

KSZ007>012-019>026-033>040-048>060-102>105-212100-
NORTHEAST KANSAS

CITY           SKY/WX    TMP DP  RH WIND       PRES   REMARKS
CONCORDIA      SUNNY     44  12  27 N22G30    30.28R
EMPORIA        SUNNY     52  23  32 N22G29    30.17R
LAWRENCE       SUNNY     50  13  22 NW23G32   30.17R
MANHATTAN      SUNNY     47   8  20 N14G23    30.25R
MARYSVILLE     SUNNY     41  10  28 N21       30.26R
OLATHE IND     SUNNY     50  24  36 N18G26    30.14R
OLATHE EXE     SUNNY     49  14  24 N18G33    30.13R
SALINA         SUNNY     50  23  34 N29G35    30.26R
TOPEKA BILLARD SUNNY     48  10  21 N23G30    30.20R
TOPEKA FORBES  SUNNY     50  12  21 NW25G32   30.18R
$$




USA.gov is the U.S. government's official web portal to all federal, state and local government web resources and services.